Time,TemperatureF,DewpointF,PressureIn,WindDirection,WindDirectionDegrees,WindSpeedMPH,WindSpeedGustMPH,Humidity,HourlyPrecipIn,Conditions,Clouds,dailyrainin,SolarRadiationWatts/m^2,SoftwareType,DateUTC
2013-11-11 09:36:00,39.4,9.8,30.54,WNW,291,0.0,-999.0,29,1.73,,,1.73,138,WeatherHawk,2013-11-11 14:36:00,
2013-11-11 09:40:00,40.4,8.3,30.50,SSE,152,0.0,-999.0,26,1.73,,,1.73,189,WeatherHawk,2013-11-11 14:40:00,
2013-11-11 09:45:00,45.3,8.7,30.50,SE,134,0.0,-999.0,22,1.73,,,1.73,344,WeatherHawk,2013-11-11 14:45:00,
2013-11-11 09:50:00,43.7,0.5,30.52,SSW,204,0.0,-999.0,16,1.73,,,1.73,417,WeatherHawk,2013-11-11 14:50:00,
2013-11-11 09:55:00,41.0,-7.6,30.51,South,188,1.0,-999.0,12,1.73,,,1.73,216,WeatherHawk,2013-11-11 14:55:00,
2013-11-11 10:00:00,41.3,-1.5,30.51,SSE,154,4.0,-999.0,16,1.73,,,1.73,242,WeatherHawk,2013-11-11 15:00:00,
2013-11-11 10:05:00,43.6,-1.0,30.51,SE,139,1.0,-999.0,15,1.73,,,1.73,328,WeatherHawk,2013-11-11 15:05:00,
2013-11-11 10:10:00,42.7,-8.1,30.50,SE,126,2.0,-999.0,11,1.73,,,1.73,242,WeatherHawk,2013-11-11 15:10:00,
2013-11-11 10:15:00,43.9,-3.8,30.49,SSE,161,2.0,-999.0,13,1.73,,,1.73,217,WeatherHawk,2013-11-11 15:15:00,
2013-11-11 10:20:00,47.4,-6.4,30.49,ENE,62,0.0,-999.0,10,1.73,,,1.73,162,WeatherHawk,2013-11-11 15:20:00,
2013-11-11 10:25:00,44.2,-5.1,30.50,SE,144,2.0,-999.0,12,1.73,,,1.73,306,WeatherHawk,2013-11-11 15:25:00,
2013-11-11 10:30:00,45.3,-12.5,30.48,South,174,0.0,-999.0,8,1.73,,,1.73,138,WeatherHawk,2013-11-11 15:30:00,
2013-11-11 10:34:00,45.5,-15.0,30.48,SSE,148,2.0,-999.0,7,1.73,,,1.73,260,WeatherHawk,2013-11-11 15:34:00,
2013-11-11 10:40:00,48.3,-5.7,30.48,SSE,149,1.0,-999.0,10,1.73,,,1.73,401,WeatherHawk,2013-11-11 15:40:00,
2013-11-11 10:44:00,52.2,-10.0,30.47,SSW,202,0.0,-999.0,7,1.73,,,1.73,447,WeatherHawk,2013-11-11 15:44:00,
2013-11-11 10:50:00,47.5,-10.9,30.47,South,177,3.0,-999.0,8,0.00,,,1.73,446,WeatherHawk,2013-11-11 15:50:00,
2013-11-11 10:54:00,48.9,-9.8,30.47,South,177,2.0,-999.0,8,0.00,,,1.73,486,WeatherHawk,2013-11-11 15:54:00,
2013-11-11 11:00:00,51.9,-7.6,30.47,SW,227,0.0,-999.0,8,0.00,,,1.73,434,WeatherHawk,2013-11-11 16:00:00,
2013-11-11 11:05:00,51.1,-8.2,30.46,South,178,2.0,-999.0,8,0.00,,,1.73,361,WeatherHawk,2013-11-11 16:05:00,
2013-11-11 11:09:00,49.8,-6.7,30.46,SSW,193,3.0,-999.0,9,0.00,,,1.73,475,WeatherHawk,2013-11-11 16:09:00,
2013-11-11 11:14:00,52.7,-4.5,30.46,SSE,150,5.0,-999.0,9,0.00,,,1.73,527,WeatherHawk,2013-11-11 16:14:00,